Location: L�Adrech
(44.2500°N, 6.4167°E)
Time: 12:09:40
(UTC+00:00)

STARLINK-1291 - Pass Details

Date: 07 June 2020
Orbit: 548 x 551 km, 53.0° (Epoch: 11 July)

Event Time Altitude Azimuth Distance (km) Brightness Sun altitude
Exits shadow 23:35:37 26° 90° (E) 1,093 5.1 -23.0°
Drops below altitude 10° 23:37:49 10° 69° (ENE) 1,818 6.5 -23.0°
Enters shadow 00:39:40 -60° 239° (WSW) 11,629 10.3 -21.3°
Maximum altitude 01:13:27 46° 335° (NNW) 741 4.5 -19.2°
